Morgantown, WV

1:42 PM EDT on July 20, 2017 (GMT -0400)
Morgantown Municipal-Hart

Weather History for KMGW - March, 2013

Change the Weather History Date:

Tuesday, March 19, 2013

  Actual Average Record
Temperature  
Mean Temperature 43 °F 43 °F  
Max Temperature 50 °F 53 °F 80 °F (2012)
Min Temperature 35 °F 33 °F 8 °F (1967)
Degree Days  
Heating Degree Days 22 22  
Month to date heating degree days 465 474  
Since 1 July heating degree days 4156 4363  
Cooling Degree Days 0 0  
Month to date cooling degree days 0 0  
Year to date cooling degree days 0 0  
Moisture  
Dew Point 27 °F    
Average Humidity 57    
Maximum Humidity 93    
Minimum Humidity 21    
Precipitation  
Precipitation 0.03 in 0.12 in 1.37 in (1963)
Month to date precipitation 1.81 2.18  
Year to date precipitation 6.38 7.59  
Sea Level Pressure  
Sea Level Pressure 29.83 in    
Wind  
Wind Speed 11 mph (WSW)    
Max Wind Speed 24 mph    
Max Gust Speed 41 mph    
Visibility 9 miles    
Events Rain    
T = Trace of Precipitation, MM = Missing Value Source: NWS Daily Summary

Daily Weather History Graph

Daily Weather History Graph

Search for Another Location

Airport or City:

Trip Planner

Search our weather history database for the weather conditions in past years. The results will help you decide how hot, cold, wet, or windy it might be!

Date:

Astronomy

Mar. 19, 2013 Rise Set
Actual Time 7:24 AM EDT 7:30 PM EDT
Civil Twilight 6:57 AM EDT 7:57 PM EDT
Nautical Twilight 6:26 AM EDT 8:29 PM EDT
Astronomical Twilight 5:54 AM EDT 9:01 PM EDT
Moon 12:14 PM EDT (3/19) 2:15 AM EDT (3/19)
Length of Visible Light 13h 00m
Length of Day
12h 06m
Waxing Crescent, 49% of the Moon is Illuminated
Mar 19
Waxing Crescent
Mar 19
First Quarter
Mar 27
Full
Apr 3
Last Quarter
Apr 10
New

Hourly Weather History & Observations

Time (EDT) Temp. Windchill Dew Point Humidity Pressure Visibility Wind Dir Wind Speed Gust Speed Precip Events Conditions
12:53 AM 46.9 °F - 42.1 °F 83% 29.72 in 10.0 mi SE 4.6 mph - N/A   Overcast
1:53 AM 50.0 °F - 45.0 °F 83% 29.73 in 9.0 mi SSW 4.6 mph - N/A   Overcast
2:19 AM 48.2 °F - 46.4 °F 93% 29.72 in 5.0 mi SSW 5.8 mph - 0.00 in Rain Light Rain
2:53 AM 48.9 °F - 46.9 °F 93% 29.73 in 6.0 mi SSW 5.8 mph - 0.00 in   Overcast
3:53 AM 45.0 °F 40.1 °F 42.1 °F 90% 29.75 in 10.0 mi WNW 9.2 mph - 0.03 in Rain Light Rain
4:03 AM 44.6 °F 38.8 °F 41.0 °F 87% 29.74 in 10.0 mi West 11.5 mph 16.1 mph 0.00 in   Overcast
4:31 AM 42.8 °F 38.0 °F 37.4 °F 81% 29.77 in 10.0 mi West 8.1 mph 19.6 mph 0.00 in   Overcast
4:44 AM 42.8 °F 36.2 °F 37.4 °F 81% 29.78 in 6.0 mi West 12.7 mph 20.7 mph 0.00 in   Overcast
4:53 AM 42.1 °F 36.6 °F 37.9 °F 85% 29.80 in 5.0 mi West 9.2 mph 19.6 mph 0.00 in   Overcast
5:53 AM 41.0 °F 36.4 °F 35.1 °F 79% 29.84 in 10.0 mi West 6.9 mph - 0.00 in   Overcast
6:46 AM 39.2 °F 34.2 °F 30.2 °F 70% 29.85 in 10.0 mi Variable 6.9 mph - N/A   Mostly Cloudy
6:53 AM 39.0 °F 33.4 °F 30.0 °F 70% 29.88 in 10.0 mi West 8.1 mph - N/A   Scattered Clouds
7:53 AM 39.9 °F 34.5 °F 28.0 °F 63% 29.88 in 10.0 mi SSW 8.1 mph - N/A   Overcast
8:53 AM 39.9 °F 32.1 °F 28.0 °F 63% 29.86 in 10.0 mi SW 13.8 mph 19.6 mph N/A   Overcast
9:53 AM 41.0 °F 33.5 °F 28.9 °F 62% 29.84 in 10.0 mi SW 13.8 mph 21.9 mph N/A   Overcast
10:53 AM 42.1 °F 34.9 °F 28.0 °F 58% 29.80 in 10.0 mi SSW 13.8 mph 27.6 mph N/A   Overcast
11:53 AM 45.0 °F 38.2 °F 27.0 °F 49% 29.80 in 10.0 mi SW 15.0 mph 28.8 mph N/A   Overcast
12:53 PM 46.9 °F - 24.1 °F 41% 29.80 in 10.0 mi WSW 17.3 mph 35.7 mph N/A   Mostly Cloudy
1:53 PM 46.0 °F 40.2 °F 21.9 °F 39% 29.80 in 10.0 mi SW 12.7 mph 21.9 mph N/A   Scattered Clouds
2:53 PM 48.0 °F - 17.1 °F 29% 29.79 in 10.0 mi West 10.4 mph 31.1 mph N/A   Partly Cloudy
3:53 PM 48.0 °F - 10.0 °F 22% 29.80 in 10.0 mi West 15.0 mph 40.3 mph N/A   Scattered Clouds
4:53 PM 46.9 °F - 12.0 °F 24% 29.83 in 10.0 mi West 19.6 mph 35.7 mph N/A   Mostly Cloudy
5:53 PM 45.0 °F 37.9 °F 10.0 °F 24% 29.85 in 10.0 mi WSW 16.1 mph 29.9 mph N/A   Scattered Clouds
6:53 PM 43.0 °F 34.5 °F 10.9 °F 27% 29.90 in 10.0 mi West 19.6 mph 34.5 mph N/A   Scattered Clouds
7:53 PM 41.0 °F 35.2 °F 12.9 °F 32% 29.92 in 10.0 mi West 9.2 mph 18.4 mph N/A   Scattered Clouds
8:53 PM 39.0 °F 32.8 °F 14.0 °F 36% 29.96 in 10.0 mi WNW 9.2 mph 19.6 mph N/A   Clear
9:53 PM 37.9 °F 31.5 °F 14.0 °F 38% 29.99 in 10.0 mi West 9.2 mph 19.6 mph N/A   Clear
10:53 PM 37.0 °F 29.3 °F 12.9 °F 37% 30.00 in 10.0 mi West 11.5 mph 19.6 mph N/A   Clear
11:53 PM 36.0 °F 30.3 °F 12.9 °F 39% 30.00 in 10.0 mi Variable 6.9 mph - N/A   Clear